Fort Nelson Airport, British Columbia

Past 24 Hour Conditions

Date / Time
(PDT)
Conditions Temp
(°F)
Humidity
(%)
Dew Point
(°F)
Wind
(mph)
Pressure
(inches)
Vis
(mi)
Wind Chill
30 October 2014
7:00 Cloudy 32   97 31 E 3 30.0 15 29
6:00 Mostly Cloudy 32   95 31 calm 30.0 15 31
5:00 Mostly Cloudy 32   96 30 N 2 30.0 15 30
4:00 Mostly Cloudy 31 96 30 calm 30.1 15 *
3:00 Mostly Cloudy 31 97 30 calm 30.1 15 *
2:00 Mostly Cloudy 31 96 30 N 2 30.1 15 29
1:00 Mostly Cloudy 31 98 30 calm 30.1 15 29
00:00 Mostly Cloudy 31 98 30 calm 30.1 15 *
29 October 2014
23:00 Mostly Cloudy 30 97 30 calm 30.1 15 *
22:00 Mostly Cloudy 31 96 30 SE 2 30.1 15 29
21:00 Mostly Cloudy 30 99 30 SE 3 30.1 10 28
20:00 Mostly Cloudy 31 98 30 ESE 2 30.1 15 29
19:00 Light Snow 31 100 31 calm 30.1 10 *
18:00 Light Snow 31 99 31 N 2 30.1 10 29
17:00 Light Snow 31 97 30 calm 30.1 10 30
16:00 Mostly Cloudy 31 95 30 calm 30.1 10 30
15:00 Cloudy 32   93 30 calm 30.1 10 30
14:00 Cloudy 31 92 29 E 3 30.1 10 29
13:00 Cloudy 31 92 29 SE 3 30.1 7 28
12:00 Light Snow 30 92 28 ESE 5 30.1 7 26
11:00 Light Snow 29 93 28 E 3 30.0 5 26
10:00 Light Snow 29 93 27 ENE 3 30.0 3 25
9:00 Light Snow 28   95 27 ENE 5 30.0 7 23
8:00 Light Snow 28   94 27 E 5 30.0 0.7 23
7:00 Light Snow 28   95 27 ENE 3 30.0 3 24
N/A Not available
↑ Highest temperature
↓ Lowest temperature
* Value not significant.

If you require additional historical weather information, please visit Climate Data Online.

Date modified: